This is the latest recevied weather packets stored in our database for station/object W0AVQ. If no packets are shown the sender has not sent any weather packets the latest 10 day(s).
| Time | Temp. | Humidity | Pressure | Rain* | Wind** | Luminosity | Snow |
|---|---|---|---|---|---|---|---|
| 1777674179 | 18.33° C | 40% | 1016.7 hPa | 0 mm | - | 75 W/m² | - |
| 1777673876 | 18.33° C | 42% | 1016.6 hPa | 0 mm | - | 300 W/m² | - |
| 1777673572 | 17.78° C | 40% | 1016.8 hPa | 0 mm | - | 243 W/m² | - |
| 1777673270 | 17.78° C | 41% | 1017.1 hPa | 0 mm | - | 183 W/m² | - |
| 1777672967 | 17.78° C | 39% | 1017.1 hPa | 0 mm | - | 311 W/m² | - |
| 1777672664 | 17.78° C | 40% | 1017.4 hPa | 0 mm | - | 125 W/m² | - |
| 1777672359 | 17.78° C | 40% | 1017.4 hPa | 0 mm | - | 79 W/m² | - |
| 1777672054 | 18.33° C | 40% | 1017.4 hPa | 0 mm | - | 73 W/m² | - |
| 1777671751 | 17.78° C | 39% | 1017.2 hPa | 0 mm | - | 84 W/m² | - |
| 1777671447 | 18.33° C | 42% | 1017.4 hPa | 0 mm | - | 86 W/m² | - |
| 1777671144 | 18.33° C | 41% | 1017.6 hPa | 0 mm | - | 106 W/m² | - |
| 1777670840 | 18.33° C | 39% | 1017.4 hPa | 0 mm | - | 106 W/m² | - |
| 1777670536 | 17.78° C | 40% | 1017.5 hPa | 0 mm | - | 115 W/m² | - |
| 1777670233 | 18.33° C | 41% | 1017.8 hPa | 0 mm | - | 120 W/m² | - |
| 1777669930 | 17.78° C | 39% | 1017.7 hPa | 0 mm | - | 268 W/m² | - |
| 1777669628 | 17.78° C | 38% | 1017.9 hPa | 0 mm | - | 409 W/m² | - |
| 1777669324 | 17.78° C | 39% | 1017.8 hPa | 0 mm | - | 436 W/m² | - |
| 1777669020 | 18.33° C | 40% | 1017.9 hPa | 0 mm | - | 126 W/m² | - |
| 1777668717 | 17.78° C | 38% | 1017.8 hPa | 0 mm | - | 85 W/m² | - |
| 1777668414 | 17.78° C | 39% | 1018.1 hPa | 0 mm | - | 69 W/m² | - |
| 1777668110 | 17.78° C | 39% | 1018.3 hPa | 0 mm | - | 62 W/m² | - |
| 1777667807 | 17.78° C | 42% | 1018.5 hPa | 0 mm | - | 65 W/m² | - |
| 1777667505 | 17.22° C | 39% | 1018.5 hPa | 0 mm | - | 60 W/m² | - |
| 1777667201 | 17.78° C | 40% | 1018.5 hPa | 0 mm | - | 59 W/m² | - |
| 1777666898 | 17.78° C | 38% | 1018.4 hPa | 0 mm | - | 61 W/m² | - |
* Rain latest hour (hover to see other rain measurements)
** Current wind speed in m/s (hover to see current wind gust speed)